Regional Weather Roundup
Issued by NWS Goodland, KS

Home | Current Version | Previous Version | Text Only | Print | Product List | Glossary Off
Versions: 1 2 3 4 5 6 7 8 9 10 11 12 13 14 15 16 17 18 19 20 21 22 23 24 25 26 27 28 29 30 31 32 33 34 35 36 37 38 39 40 41 42 43 44 45 46 47 48 49 50

000
ASUS43 KGLD 071059
RWRGLD

GOODLAND FORECAST AREA HOURLY WEATHER ROUNDUP
NATIONAL WEATHER SERVICE GOODLAND KS
400 AM MST WED DEC 07 2016

...OFFICIAL OBSERVATIONS...

CITY           SKY/WX    TMP DP  RH WIND       PRES   REMARKS
GOODLAND KS    FLURRIES  21  13  71 NE14      30.06R WCI   8
HILL CITY KS   CLOUDY    23   9  55 E7        30.17R
IMPERIAL NEB   LGT SNOW  13   8  81 NE14      30.10F WCI  -2
MCCOOK NEB     LGT SNOW  16  12  84 NE13      30.18R FOG     WCI   2
AKRON CO       CLOUDY    13   9  84 NE10      29.99R WCI   0
BURLINGTON CO  LGT SNOW  21  14  74 E20       29.97F WCI   6
LIMON CO       CLOUDY    13  11  92 E8        29.93R
$$

...UNOFFICIAL OBSERVATIONS...

CITY           SKY/WX    TMP DP  RH WIND       PRES   REMARKS
COLBY KS       CLOUDY    21  12  68 NE20      30.10R WCI   6
LENORA KS        N/A     20  32 100 MISG        N/A
NORTON KS      CLOUDY    18   9  68 N17       30.15R WCI   2
SHARON SPRINGS   N/A     24   8  51 CALM        N/A
TRENTON NEB      N/A     14  32 100 CALM        N/A
KIT CARSON CO    N/A     21   4  48 MISG        N/A
YUMA CO        FLURRIES  14  12  92 NE8       30.04R
$$



USA.gov is the U.S. government's official web portal to all federal, state and local government web resources and services.